Torna al catalogo

COSMOS 2251 DEB

AttivoLEO
NORAD 37985·DEBRIS·🇷🇺 Russia

Lanciato Jun 16, 1993 da Plesetsk Cosmodrome

Loading…

Prossimi Passaggi (prossime 24 ore)

TLE

In scadenzaSource: Space-Track

Epoca: Sep 12, 2026, 08:45 UTC

1 37985U 93036BQL 26255.36492865  .00000063  00000-0  31013-4 0  9997
2 37985  74.0243 123.4836 0021585 186.0123 174.0774 14.35550669688436

Traccia COSMOS 2251 DEB in tempo reale con AllMySat

Download on the App Store